Flag for Germany Weather past 2 weeks in Garbsen, Lower Saxony, Germany

Now
36 °F

Overcast.


Feels Like: 29 °F
Forecast: 32 / 37 °F
Wind: 9 mph from West

Location: Hannover

Current Time: Feb 1, 2015 at 1:01:16 PM

Latest Report: Feb 1, 2015 at 12:20 PM


Visibility: N/A

Pressure: 29.21 "Hg

Humidity: 81%

Dew point: 30 °F

Location of GarbsenLocation

Historic Weather in Garbsen — Graph

°F

Garbsen temperature yesterday

Maximum temperature yesterday: 37 °F (at 3:50 PM)
Minimum temperature yesterday: 30 °F (at 2:20 AM)
Average temperature yesterday: 33 °F

Past Weeks' High & Low Weather Summary

 TemperatureHumidityPressure
High43 °F (Jan 28, 1:50 PM)100% (Jan 20, 4:50 AM)30.30 "Hg (Jan 20, 4:50 AM)
Low23 °F (Jan 21, 5:50 AM)65% (Jan 17, 3:50 PM)28.68 "Hg (Jan 30, 2:50 AM)
Average33 °F90%29.77 "Hg
* Reported Jan 17 11:20 AM — Feb 1 11:50 AM, Garbsen, Weather by CustomWeather, © 2014

Note: Actual official high and low records may vary slightly from our data, if they occured in-between our weather recording intervals... More about our weather records

Advertising

Garbsen weather history for previous 24 hours

 ConditionsComfort  
Time TempWeatherWind HumidityBarometerVisibility
11:50 AM
Feb 1
34 °FOvercast.10 mph87%29.21 "HgN/A
11:20 AM36 °FOvercast.9 mph81%29.21 "Hg6 mi
10:50 AM34 °FOvercast.9 mph87%29.18 "Hg6 mi
10:20 AM34 °FLow clouds.9 mph93%29.18 "Hg6 mi
9:50 AM34 °FLow clouds.7 mph87%29.18 "Hg6 mi
9:20 AM34 °FPartly sunny.9 mph87%29.18 "Hg6 mi
8:50 AM34 °FPartly sunny.8 mph87%29.15 "Hg4 mi
8:20 AM34 °FFog.6 mph93%29.15 "Hg3 mi
7:50 AM32 °FIce fog.6 mph93%29.15 "Hg3 mi
7:20 AM32 °FIce fog.5 mph93%29.12 "Hg3 mi
6:50 AM32 °FPartly cloudy.5 mph93%29.12 "Hg4 mi
6:20 AM32 °FPartly cloudy.6 mph93%29.12 "Hg4 mi
5:50 AM32 °FPassing clouds.5 mph93%29.12 "Hg4 mi
5:20 AM32 °FPartly cloudy.5 mph93%29.12 "Hg4 mi
4:50 AM32 °FClear.5 mph93%29.09 "Hg4 mi
4:20 AM32 °FPassing clouds.3 mph93%29.09 "Hg4 mi
3:50 AM32 °FPassing clouds.5 mph93%29.09 "HgN/A
3:20 AM32 °FPassing clouds.6 mph93%29.09 "HgN/A
2:50 AM32 °FPassing clouds.6 mph93%29.09 "HgN/A
2:20 AM32 °FPassing clouds.7 mph93%29.09 "HgN/A
1:50 AM32 °FPartly cloudy.9 mph93%29.09 "HgN/A
1:20 AM32 °FPartly cloudy.7 mph93%29.09 "HgN/A
12:50 AM32 °FPassing clouds.7 mph93%29.09 "HgN/A
12:20 AM32 °FPartly cloudy.6 mph93%29.09 "HgN/A
11:50 PM
Jan 31
34 °FPartly cloudy.6 mph87%29.09 "HgN/A
11:20 PM32 °FPassing clouds.6 mph93%29.06 "HgN/A
10:50 PM32 °FPassing clouds.7 mph93%29.06 "Hg5 mi
10:20 PM30 °FPassing clouds.5 mph93%29.06 "Hg5 mi
9:50 PM34 °FPassing clouds.7 mph87%29.06 "HgN/A
9:20 PM34 °FPassing clouds.6 mph93%29.06 "Hg6 mi
8:50 PM34 °FClear.7 mph93%29.06 "Hg6 mi
8:20 PM32 °FClear.6 mph93%29.03 "Hg6 mi
7:50 PM32 °FClear.7 mph93%29.03 "Hg10 mi
7:20 PM32 °FPassing clouds.6 mph93%29.03 "HgN/A
6:50 PM34 °FPassing clouds.6 mph87%29.03 "HgN/A
6:20 PM34 °FPassing clouds.7 mph87%29.03 "HgN/A
5:50 PM34 °FPassing clouds.9 mph87%29.00 "HgN/A
5:20 PM36 °FPassing clouds.10 mph87%29.00 "HgN/A
4:20 PM36 °FScattered clouds.9 mph87%28.97 "HgN/A
3:50 PM37 °FPartly sunny.10 mph81%28.97 "HgN/A
3:20 PM36 °FPartly sunny.9 mph93%28.97 "HgN/A
2:50 PM36 °FBroken clouds.12 mph87%28.94 "Hg6 mi
2:20 PM36 °FBroken clouds.9 mph87%28.94 "Hg5 mi
1:50 PM36 °FBroken clouds.9 mph87%28.94 "Hg5 mi
1:20 PM36 °FPartly sunny.13 mph87%28.94 "Hg5 mi
Weather by CustomWeather, © 2014

See weather overviewHow to use our weather pages